STARLINK-34135, 63964

Orbit data source: Space-Track

STARLINK-34135, 63964 is a payload satellite owned by SpaceX/Seattle (US) in LEO that was launched on Tue, 13 May 2025 UTC via an FALCON 9 launch vehicle from the Air Force Eastern Test Range (AFETR). Payload-class satellites include a variety of spacecraft equipped with specific instruments for various scientific and technological missions. These include communications satellites like Starlink; space stations such as the ISS; scientific satellites like the Hubble; Earth observation satellites from companies like Planet Labs, Umbra, and HawkEye 360; GPS; miniature CubeSats for education and research; and military/defense satellites.

Loading next visibility...
Identifier
63964, 2025-099N
Orbit
LEO
Country
Flag of USUS
Related business
Manufacturer
SpaceX/Seattle
Mission
Operational Commercial Communications
Bus & Motor
STARLINK V2MO, Unknown motor
Mass
575 kg wet, ~530 kg dry
Launch date (UTC)
2025-05-13 (1 year ago)
Launch vehicle
FALCON 9
Launch site
Air Force Eastern Test Range (AFETR)
Object type
Payload
Rocket body
Debris
Shape & HBR
Box + 2 Pan, 17.7 m
Radar Cross Section
36.964 m², Large (>1 m²)

Expand to show TLE details & history
Last TLE update: 13 hours ago

TLE from 13 hours ago
0 STARLINK-34135
1 63964U 25099N   26171.45331639  .00019170  00000-0  70434-3 0  9993
2 63964  42.9993 315.7795 0001343 245.6611 114.4101 15.27579252 63050
Epoch: 2026-06-20T10:52Z
TLE epoch observation values (Epoch: 2026-06-20T10:52:46.536Z)
Latitude
0.00003°
Longitude
-116.08208°
Altitude
483.208 km
Speed
7.625 km/s
True Right ascension
21h 03m 07s
True Declination
0° 00' 00"
Sunlit
Object was in full shadow at epoch
Visualization orbit readout
Latitude
Unknown
Longitude
Unknown
Altitude
Unknown
Speed
Unknown
Apparent Right ascension
Unknown
Apparent Declination
Unknown
Sunlit
N/A
Visualization observer readout
Local Sidereal Time
10:20:16
Azimuth
Unknown
Elevation
Unknown
Doppler factor
Unknown
Orbital elements
Apogee altitude
485.918 km
Perigee altitude
484.075 km
Semi-major axis
6,863.134 km
Eccentricity
0.00013
Inclination
42.9993°
RAAN
315.7795°
Arg. of periapsis
245.6611°
True anomaly
114.42411°
Mean anomaly
114.4101°
Eccentric anomaly
114.41711°
Mean motion
3.81733 °/min
Orbital period
94.31 mins
BSTAR
0.00070434
Loading maneuver chart data...
Computing Atmospheric mass density...
Loading historical data...
Loading historical data...
Loading historical data...
Loading historical data...
Loading historical data...
Loading historical data...
Loading historical data...

Documentation

Showing up to 5 results
|